Notices

What's New in latest Release from April 7th, 2021:

- Updated Glossary, including Speed of Maximum Gust, and Total Hourly Precipitation

- Updated national and regional climate services offices contacts and prices information

- Addition of station inventory lists for 1981-2010, 1971-2000, and 1961-1990 Normals.

If you haven't already, please take our survey and provide feedback about our website: https://eccc.sondage-survey.ca/f/LanguageSelection.aspx?s=442ca660-fcf1-47c0-95a9-59707d6fd709

Hourly Data Report for April 24, 2019

MIRAMICHI RCS
NEW BRUNSWICK
Current Station Operator: ECCC - MSC

47°00'34.000" N
65°27'54.000" W
33.00 m
8100989
71744
ACQ

Download Data

Hourly Data (April 2019)
Hourly Data Report for April 24, 2019
TIME
LST
Temp Definition
°C
Dew Point Definition
°C
Rel Hum Definition
%
Precip. Amount Definition
mm

Wind Dir Definition
10's deg

Wind Spd Definition
km/h
Visibility Definition
km
Stn Press Definition
kPa
Hmdx Definition


Wind Chill Definition


Weather Definition


00:00 1.7 0.9 94 0.0 3 13   100.67     LegendNANA
01:00 1.9 1.2 95 0.5 3 9   100.56     LegendNANA
02:00 1.0 0.3 95 0.2 2 10   100.47     LegendNANA
03:00 1.0 0.2 95 0.0 2 11   100.41     LegendNANA
04:00 1.3 0.6 95 0.0 3 11   100.36     LegendNANA
05:00 1.2 0.6 96 0.3 36 7   100.38     LegendNANA
06:00 1.2 0.6 96 0.2 2 9   100.33     LegendNANA
07:00 1.5 0.7 94 0.0 1 8   100.38     LegendNANA
08:00 1.8 0.9 94 0.0 4 15   100.40     LegendNANA
09:00 2.2 1.2 93 0.2 3 12   100.42     LegendNANA
10:00 2.9 2.1 94 0.0 5 14   100.44     LegendNANA
11:00 2.8 1.8 93 0.0 5 18   100.42     LegendNANA
12:00 2.6 1.6 93 0.0 5 16   100.45     LegendNANA
13:00 2.2 1.2 93 0.2 6 20   100.46     LegendNANA
14:00 2.0 0.9 93 0.0 5 20   100.49     LegendNANA
15:00 1.7 0.8 94 0.0 6 22   100.44     LegendNANA
16:00 1.5 0.7 94 0.0 5 25   100.33     LegendNANA
17:00 1.0 0.3 95 0.3 6 19   100.42     LegendNANA
18:00 0.8 -0.1 94 0.7 5 21   100.44     LegendNANA
19:00 0.3 -0.6 94 0.2 5 15   100.51     LegendNANA
20:00 0.0 -0.8 95 0.5 5 16   100.51   -5 LegendNANA
21:00 -0.2 -1.0 94 0.5 4 17   100.52   -5 LegendNANA
22:00 -0.4 -1.3 94 0.5 3 19   100.52   -6 LegendNANA
23:00 -0.6 -1.4 95 0.3 4 14   100.49   -5 LegendNANA

Notes on Data Quality.

Legend

  • E = Estimated
  • M = Missing
  • NA = Not Available*
  • [empty] = Indicates an unobserved value
Date modified: